Location: Hilton Head Island
(32.2163°N, 80.7526°W)
Time: 18:08:10
(UTC-04:00)

Altair - Pass Details

Date: 22 February 2026
Orbit: 1502 x 1682 km, 47.2° (Epoch: 10 March)

Event Time Altitude Azimuth Distance (km) Brightness Sun altitude
Exits shadow 06:21:29 - 294° (WNW) 3,872 9.0 -8.5°
Reaches altitude 10° 06:22:15 10° 297° (WNW) 3,670 8.9 -8.3°
Maximum altitude 06:30:16 32° 358° (N) 2,417 8.5 -6.7°
Drops below altitude 10° 06:38:30 10° 58° (ENE) 3,771 10.4 -4.9°
Sets 06:42:10 0° 68° (ENE) 4,784 11.3 -4.2°
